TimeMST,TemperatureF,Dew PointF,Humidity,Sea Level PressureIn,VisibilityMPH,Wind Direction,Wind SpeedMPH,Gust SpeedMPH,PrecipitationIn,Events,Conditions,WindDirDegrees,DateUTC
12:00 AM,33.8,28.4,81,30.01,9.0,SSW,10.4,-,N/A,,Overcast,210,2013-02-03 07:00:00
1:00 AM,30.2,26.6,86,29.98,9.0,SW,8.1,-,N/A,,Mostly Cloudy,220,2013-02-03 08:00:00
2:00 AM,28.4,26.6,93,29.94,9.0,SW,9.2,-,N/A,,Overcast,220,2013-02-03 09:00:00
3:00 AM,33.8,26.6,75,29.90,9.0,SW,8.1,-,N/A,,Overcast,220,2013-02-03 10:00:00
4:00 AM,33.8,26.6,75,29.86,9.0,WSW,8.1,-,N/A,,Overcast,240,2013-02-03 11:00:00
6:00 AM,33.8,26.6,75,29.90,15.0,West,11.5,-,N/A,,Overcast,270,2013-02-03 13:00:00
7:00 AM,33.8,23.0,65,29.91,15.0,WNW,10.4,-,N/A,,Mostly Cloudy,290,2013-02-03 14:00:00
8:00 AM,33.8,24.8,70,29.95,30.0,NW,8.1,-,N/A,,Mostly Cloudy,310,2013-02-03 15:00:00
9:00 AM,33.8,24.8,70,29.96,30.0,West,2.3,-,N/A,,Mostly Cloudy,270,2013-02-03 16:00:00
10:00 AM,33.8,24.8,70,29.99,30.0,West,6.9,-,N/A,,Mostly Cloudy,280,2013-02-03 17:00:00
11:00 AM,-41,-49,46,29.48,,South,6.9,,,,,180,2013-02-03 18:00:00
11:00 AM,37.4,26.6,65,29.99,30.0,WSW,4.6,-,N/A,,Mostly Cloudy,240,2013-02-03 18:00:00
12:00 PM,39.2,26.6,61,29.99,30.0,West,5.8,-,N/A,,Mostly Cloudy,280,2013-02-03 19:00:00
1:00 PM,39.2,28.4,65,29.99,30.0,SSW,5.8,-,N/A,,Mostly Cloudy,210,2013-02-03 20:00:00
2:00 PM,39.2,30.2,70,29.98,30.0,SSW,10.4,-,N/A,,Mostly Cloudy,210,2013-02-03 21:00:00
3:00 PM,39.2,30.2,70,29.96,30.0,SSW,9.2,-,N/A,,Mostly Cloudy,210,2013-02-03 22:00:00
4:00 PM,41.0,30.2,65,29.95,30.0,SW,9.2,-,N/A,,Mostly Cloudy,230,2013-02-03 23:00:00
5:00 PM,-41,-48,48,29.51,,South,9.2,,,,,170,2013-02-04 00:00:00
5:00 PM,37.4,30.2,75,29.94,30.0,SW,9.2,-,N/A,,Mostly Cloudy,220,2013-02-04 00:00:00
6:00 PM,33.8,30.2,87,29.94,15.0,SSW,10.4,-,N/A,,Partly Cloudy,210,2013-02-04 01:00:00
7:00 PM,30.2,26.6,86,29.94,15.0,SW,6.9,-,N/A,,Partly Cloudy,230,2013-02-04 02:00:00
8:00 PM,28.4,26.6,93,29.92,15.0,SW,6.9,-,N/A,,Partly Cloudy,220,2013-02-04 03:00:00
9:00 PM,28.4,24.8,86,29.90,9.0,SSW,9.2,-,N/A,,Partly Cloudy,210,2013-02-04 04:00:00
10:00 PM,28.4,24.8,86,29.88,9.0,SSW,8.1,-,N/A,,Partly Cloudy,210,2013-02-04 05:00:00
11:00 PM,-41,-48,47,29.56,,South,15.0,,,,,180,2013-02-04 06:00:00
11:00 PM,26.6,24.8,93,29.85,9.0,SW,5.8,-,N/A,,Scattered Clouds,220,2013-02-04 06:00:00